EW0395 Weather Reports


Display with metric or nautical units.
time (UTC)temp
F
wind
direction
speed
MPH
gust
MPH
rain 1hr
in
rain 24hr
in
rain mn
in
humidity
%
barometer
mb
20260903161538 65 0 0.0 0.0 0.00 0.07 0.07 96 1014.9
20260903160038 64 0 0.0 0.0 0.00 0.07 0.07 98 1014.9
20260903154538 63 0 0.0 0.0 0.00 0.07 0.07 98 1015.0
20260903153040 63 0 0.0 0.0 0.00 0.07 0.07 98 1015.1
20260903151537 63 0 0.0 0.0 0.00 0.07 0.07 98 1015.4
20260903150035 62 0 0.0 0.0 0.00 0.07 0.07 98 1015.5
20260903144541 62 0 0.0 0.0 0.00 0.07 0.07 98 1015.7
20260903143035 62 0 0.0 0.0 0.00 0.07 0.07 98 1015.7
20260903141541 62 0 0.0 0.0 0.00 0.07 0.07 98 1015.8
20260903140042 62 0 0.0 0.0 0.00 0.07 0.07 99 1015.7
20260903134539 62 0 0.0 0.0 0.00 0.07 0.07 99 1015.7
20260903133042 61 0 0.0 0.0 0.00 0.07 0.07 99 1015.5
20260903131543 61 0 0.0 0.0 0.00 0.07 0.07 99 1015.5
20260903130104 60 0 0.0 0.0 0.00 0.07 0.07 99 1015.7
20260903124547 60 0 0.0 0.0 0.00 0.07 0.07 99 1015.8
20260903123042 60 0 0.0 0.0 0.00 0.07 0.07 99 1015.8
20260903121547 59 0 0.0 0.0 0.00 0.07 0.07 99 1016.0
20260903120041 59 0 0.0 0.0 0.00 0.07 0.07 99 1016.1
20260903114541 59 0 0.0 0.0 0.00 0.07 0.07 99 1016.1
20260903113043 58 0 0.0 0.0 0.00 0.07 0.07 99 1016.2
20260903111540 58 0 0.0 0.0 0.00 0.07 0.07 99 1016.2
20260903110108 58 0 0.0 0.0 0.00 0.07 0.07 99 1016.2
20260903104538 58 0 0.0 0.0 0.00 0.07 0.07 99 1016.2
20260903103036 58 0 0.0 0.0 0.00 0.07 0.07 99 1016.0
20260903101537 58 0 0.0 0.0 0.00 0.07 0.07 98 1016.2
20260903100036 58 0 0.0 0.0 0.00 0.07 0.07 98 1016.0
20260903094550 58 0 0.0 0.0 0.00 0.07 0.07 98 1016.2
20260903093039 58 0 0.0 0.0 0.00 0.07 0.07 98 1016.2
20260903091538 58 0 0.0 0.0 0.00 0.07 0.07 98 1016.2
20260903090037 58 0 0.0 0.0 0.00 0.07 0.07 98 1016.3
20260903084539 58 0 0.0 0.0 0.00 0.07 0.07 98 1016.6
20260903083039 58 0 0.0 0.0 0.00 0.07 0.07 98 1016.6
20260903081542 58 0 0.0 0.0 0.00 0.07 0.07 98 1016.7
20260903080042 58 0 0.0 0.0 0.00 0.07 0.07 97 1016.7
20260903074541 58 0 0.0 0.0 0.00 0.07 0.07 97 1016.8
20260903073039 58 0 0.0 0.0 0.01 0.07 0.07 97 1017.2
20260903071539 58 0 0.0 0.0 0.02 0.07 0.07 97 1017.2
20260903070038 58 0 0.0 0.0 0.07 0.07 0.07 96 1017.1
20260903064538 58 0 0.0 0.0 0.07 0.07 0.07 96 1016.8
20260903063040 58 0 0.0 0.0 0.06 0.06 0.06 95 1016.8
20260903061550 59 0 0.0 0.0 0.05 0.05 0.05 92 1017.2
20260903060040 60 0 0.0 0.0 0.00 0.00 0.00 89 1017.6
20260903054546 60 0 0.0 0.0 0.00 0.00 0.00 88 1017.9
20260903053059 60 0 0.0 0.0 0.00 0.00 0.00 88 1018.1
20260903051539 61 0 0.0 0.0 0.00 0.00 0.00 88 1018.6
20260903050038 61 0 0.0 0.0 0.00 0.00 0.00 88 1018.5
20260903044550 61 0 0.0 0.0 0.00 0.00 0.00 88 1018.4
20260903043039 61 0 0.0 0.0 0.00 0.00 0.00 88 1018.3
20260903041538 61 0 0.0 0.0 0.00 0.00 0.00 88 1018.5
20260903040041 61 0 0.0 0.0 0.00 0.00 0.00 88 1018.6
20260903034538 61 0 0.0 0.0 0.00 0.00 0.00 88 1018.6
20260903033038 61 0 0.0 0.0 0.00 0.00 0.00 88 1019.1
20260903031536 61 0 0.0 0.0 0.00 0.00 0.00 87 1019.2
20260903030043 61 0 0.0 0.0 0.00 0.00 0.00 87 1019.2
20260903024542 61 0 0.0 0.0 0.00 0.00 0.00 87 1019.7
20260903023039 61 0 0.0 0.0 0.00 0.00 0.00 86 1019.5
20260903021540 61 0 0.0 0.0 0.00 0.00 0.00 85 1019.7
20260903020040 61 0 0.0 0.0 0.00 0.00 0.00 85 1019.8
20260903014543 61 0 0.0 0.0 0.00 0.00 0.00 84 1020.3
20260903013036 61 0 0.0 0.0 0.00 0.00 0.00 84 1020.2
20260903011542 62 0 0.0 0.0 0.00 0.00 0.00 85 1020.1
20260903010047 62 0 0.0 0.0 0.00 0.00 0.00 87 1020.1
20260903004535 62 0 0.0 0.0 0.00 0.00 0.00 85 1019.9
20260903003036 62 0 0.0 0.0 0.00 0.00 0.00 86 1019.5
20260903001538 62 0 0.0 0.0 0.00 0.00 0.00 87 1019.2
20260903000038 62 0 0.0 0.0 0.00 0.00 0.00 88 1019.6
20260902234539 62 0 0.0 0.0 0.00 0.00 0.00 88 1019.5
20260902233041 63 0 0.0 0.0 0.00 0.00 0.00 88 1020.0
20260902231546 63 0 0.0 0.0 0.00 0.00 0.00 88 1020.3
20260902230038 63 0 0.0 0.0 0.00 0.00 0.00 89 1020.8
20260902224540 63 0 0.0 0.0 0.00 0.00 0.00 89 1021.0
20260902223039 63 0 0.0 0.0 0.00 0.00 0.00 88 1021.3
20260902221538 64 0 0.0 0.0 0.00 0.00 0.00 88 1021.4
20260902220048 64 0 0.0 0.0 0.00 0.00 0.00 89 1021.1
20260902214538 64 0 0.0 0.0 0.00 0.00 0.00 89 1021.3
20260902213037 64 0 0.0 0.0 0.00 0.00 0.00 88 1021.3
20260902211539 64 0 0.0 0.0 0.00 0.00 0.00 88 1021.6
20260902210047 64 0 0.0 0.0 0.00 0.00 0.00 88 1021.4
20260902204543 64 0 0.0 0.0 0.00 0.00 0.00 87 1021.6
20260902203037 64 0 0.0 0.0 0.00 0.00 0.00 87 1021.7
20260902201543 65 0 0.0 0.0 0.00 0.00 0.00 86 1021.7
20260902200045 65 0 0.0 0.0 0.00 0.00 0.00 85 1021.5
20260902194541 65 0 0.0 0.0 0.00 0.00 0.00 85 1022.0
20260902193037 65 0 0.0 0.0 0.00 0.00 0.00 85 1022.0
20260902191535 65 0 0.0 0.0 0.00 0.00 0.00 86 1022.4
20260902190042 65 0 0.0 0.0 0.00 0.00 0.00 86 1022.4
20260902184538 65 0 0.0 0.0 0.00 0.00 0.00 85 1022.8
20260902183046 65 0 0.0 0.0 0.00 0.00 0.00 85 1022.6
20260902181535 65 0 0.0 0.0 0.00 0.00 0.00 85 1022.6
20260902180037 65 0 0.0 0.0 0.00 0.00 0.00 84 1022.5
20260902174538 64 0 0.0 0.0 0.00 0.00 0.00 85 1022.5
20260902173038 64 0 0.0 0.0 0.00 0.00 0.00 85 1022.5
20260902171542 63 0 0.0 0.0 0.00 0.00 0.00 85 1022.9
20260902170038 63 0 0.0 0.0 0.00 0.00 0.00 87 1022.9
20260902164549 63 0 0.0 0.0 0.00 0.01 0.00 85 1022.8
20260902163038 64 0 0.0 0.0 0.00 0.01 0.00 85 1022.7